When you browse on this site, cookies collect data to enhance your experience and personalize the content and advertising you see.
Visit our Privacy Policy to learn more. By continuing to use the site, you agree to this use of cookies and data.
  • En España
  • Lista de países
  • Para 7 días
  • Temperatura del agua
  • El tiempo en el mapa
  • Informadores
  • user-avatar
    Iniciar sesión

    Tiempo cada hora Popovka 1-ya

    Hoy, 17 Febrero, Lunes

    Tiempo Temperatura Precipitaciones Viento Presión Humedad
    00:00 -3°C° 0 mm 9 mps 744 mmHg 90%
    01:00 -4°C° 0 mm 9 mps 744 mmHg 89%
    02:00 -4°C° 0 mm 8 mps 743 mmHg 87%
    03:00 -4°C° 0 mm 9 mps 742 mmHg 85%
    04:00 -4°C° 0 mm 9 mps 742 mmHg 84%
    05:00 -4°C° 0 mm 10 mps 741 mmHg 83%
    06:00 -4°C° 0 mm 10 mps 741 mmHg 82%
    07:00 -4°C° 0 mm 10 mps 741 mmHg 81%
    08:00 -4°C° 0 mm 10 mps 741 mmHg 82%
    09:00 -4°C° 0 mm 10 mps 740 mmHg 81%
    10:00 -3°C° 0 mm 10 mps 740 mmHg 79%
    11:00 -3°C° 0 mm 10 mps 739 mmHg 78%
    12:00 -3°C° 0 mm 11 mps 739 mmHg 78%
    13:00 -3°C° 0 mm 11 mps 739 mmHg 79%
    14:00 -3°C° 0 mm 11 mps 739 mmHg 79%
    15:00 -3°C° 0 mm 10 mps 738 mmHg 79%
    16:00 -3°C° 0 mm 10 mps 738 mmHg 78%
    17:00 -3°C° 0 mm 9 mps 738 mmHg 77%
    18:00 -3°C° 0 mm 9 mps 739 mmHg 78%
    19:00 -3°C° 0 mm 9 mps 739 mmHg 79%
    20:00 -2°C° 0 mm 8 mps 739 mmHg 80%
    21:00 -2°C° 0 mm 8 mps 739 mmHg 81%
    22:00 -2°C° 0 mm 7 mps 739 mmHg 83%
    23:00 -2°C° 0 mm 7 mps 739 mmHg 84%

    Mañana, 18 Febrero, Martes

    Tiempo Temperatura Precipitaciones Viento Presión Humedad
    00:00 -2°C° 0.8 mm 6 mps 739 mmHg 89%
    01:00 -2°C° 0.8 mm 6 mps 739 mmHg 94%
    02:00 -1°C° 0.8 mm 5 mps 739 mmHg 99%
    03:00 -1°C° 1.3 mm 5 mps 739 mmHg 98%
    04:00 -1°C° 1.3 mm 5 mps 739 mmHg 98%
    05:00 -2°C° 1.3 mm 5 mps 738 mmHg 98%
    06:00 -2°C° 1.4 mm 5 mps 738 mmHg 98%
    07:00 -2°C° 1.4 mm 4 mps 738 mmHg 99%
    08:00 -2°C° 1.4 mm 4 mps 738 mmHg 99%
    09:00 -2°C° 0.4 mm 4 mps 738 mmHg 99%
    10:00 -2°C° 0.4 mm 4 mps 738 mmHg 99%
    11:00 -2°C° 0.4 mm 5 mps 737 mmHg 99%
    12:00 -2°C° 0.8 mm 5 mps 737 mmHg 99%
    13:00 -2°C° 0.8 mm 5 mps 737 mmHg 99%
    14:00 -2°C° 0.8 mm 5 mps 736 mmHg 98%
    15:00 -2°C° 0.7 mm 5 mps 736 mmHg 98%
    16:00 -2°C° 0.7 mm 5 mps 735 mmHg 98%
    17:00 -2°C° 0.7 mm 5 mps 735 mmHg 98%
    18:00 -2°C° 0.5 mm 4 mps 735 mmHg 98%
    19:00 -1°C° 0.5 mm 4 mps 735 mmHg 99%
    20:00 -1°C° 0.5 mm 4 mps 735 mmHg 99%
    21:00 -1°C° 0.3 mm 4 mps 735 mmHg 99%
    22:00 -1°C° 0.3 mm 4 mps 734 mmHg 99%
    23:00 -1°C° 0.3 mm 4 mps 734 mmHg 99%

    Pasado mañana, 19 Febrero, Miércoles

    Tiempo Temperatura Precipitaciones Viento Presión Humedad
    00:00 -1°C° 0 mm 4 mps 734 mmHg 98%
    01:00 -1°C° 0 mm 4 mps 735 mmHg 98%
    02:00 -1°C° 0 mm 4 mps 735 mmHg 97%
    03:00 -1°C° 0 mm 4 mps 735 mmHg 97%
    04:00 -1°C° 0 mm 4 mps 735 mmHg 97%
    05:00 -2°C° 0 mm 4 mps 735 mmHg 97%
    06:00 -2°C° 0 mm 4 mps 735 mmHg 97%
    07:00 -1°C° 0 mm 4 mps 736 mmHg 97%
    08:00 -1°C° 0 mm 4 mps 736 mmHg 97%
    09:00 -1°C° 0 mm 5 mps 736 mmHg 98%
    10:00 -1°C° 0 mm 5 mps 736 mmHg 98%
    11:00 -2°C° 0 mm 5 mps 736 mmHg 99%
    12:00 -1°C° 0 mm 5 mps 736 mmHg 99%
    13:00 -1°C° 0 mm 5 mps 737 mmHg 99%
    14:00 -1°C° 0 mm 5 mps 737 mmHg 99%
    15:00 -1°C° 0 mm 4 mps 737 mmHg 95%
    16:00 -2°C° 0 mm 4 mps 737 mmHg 92%
    17:00 -2°C° 0 mm 4 mps 737 mmHg 89%
    18:00 -2°C° 0 mm 4 mps 738 mmHg 89%
    19:00 -2°C° 0 mm 4 mps 738 mmHg 90%
    20:00 -2°C° 0 mm 4 mps 738 mmHg 90%
    21:00 -2°C° 0 mm 3 mps 738 mmHg 90%
    22:00 -4°C° 0 mm 3 mps 738 mmHg 90%
    23:00 -4°C° 0 mm 3 mps 738 mmHg 90%

    20 Febrero, Jueves

    Tiempo Temperatura Precipitaciones Viento Presión Humedad
    00:00 -4°C° 0 mm 3 mps 739 mmHg 90%
    01:00 -5°C° 0 mm 3 mps 739 mmHg 89%
    02:00 -4°C° 0 mm 2 mps 739 mmHg 89%
    03:00 -4°C° 0 mm 2 mps 739 mmHg 90%
    04:00 -4°C° 0 mm 2 mps 739 mmHg 90%
    05:00 -4°C° 0 mm 2 mps 739 mmHg 90%
    06:00 -4°C° 0 mm 2 mps 739 mmHg 90%
    07:00 -4°C° 0 mm 3 mps 740 mmHg 90%
    08:00 -4°C° 0 mm 3 mps 740 mmHg 90%
    09:00 -2°C° 0 mm 3 mps 740 mmHg 91%
    10:00 -2°C° 0 mm 3 mps 740 mmHg 92%
    11:00 -1°C° 0 mm 3 mps 740 mmHg 93%
    12:00 -1°C° 0 mm 3 mps 740 mmHg 94%
    13:00 -1°C° 0 mm 2 mps 740 mmHg 95%
    14:00 -1°C° 0 mm 2 mps 740 mmHg 96%
    15:00 -1°C° 0 mm 2 mps 740 mmHg 95%
    16:00 -2°C° 0 mm 2 mps 740 mmHg 95%
    17:00 -2°C° 0 mm 2 mps 740 mmHg 95%
    18:00 -3°C° 0 mm 2 mps 741 mmHg 95%
    19:00 -4°C° 0 mm 3 mps 741 mmHg 95%
    20:00 -4°C° 0 mm 3 mps 741 mmHg 95%
    21:00 -4°C° 0 mm 3 mps 742 mmHg 95%
    22:00 -4°C° 0 mm 3 mps 742 mmHg 95%
    23:00 -4°C° 0 mm 3 mps 742 mmHg 95%

    21 Febrero, Viernes

    Tiempo Temperatura Precipitaciones Viento Presión Humedad
    00:00 -4°C° 0 mm 3 mps 742 mmHg 95%
    01:00 -4°C° 0 mm 3 mps 742 mmHg 96%
    02:00 -3°C° 0 mm 2 mps 742 mmHg 96%
    03:00 -3°C° 0 mm 2 mps 742 mmHg 97%
    04:00 -2°C° 0 mm 2 mps 742 mmHg 97%
    05:00 -2°C° 0 mm 2 mps 742 mmHg 97%
    06:00 -2°C° 0 mm 2 mps 742 mmHg 97%
    07:00 -2°C° 0 mm 2 mps 743 mmHg 97%
    08:00 -2°C° 0 mm 2 mps 743 mmHg 97%
    15:00 -1°C° 0 mm 2 mps 743 mmHg 98%
    16:00 -1°C° 0 mm 2 mps 743 mmHg 98%
    17:00 -2°C° 0 mm 2 mps 743 mmHg 97%
    18:00 -2°C° 0 mm 2 mps 743 mmHg 96%
    19:00 -2°C° 0 mm 2 mps 743 mmHg 96%
    20:00 -3°C° 0 mm 2 mps 743 mmHg 95%
    21:00 -3°C° 0 mm 2 mps 743 mmHg 94%
    22:00 -3°C° 0 mm 2 mps 743 mmHg 94%
    23:00 -4°C° 0 mm 2 mps 743 mmHg 94%

    22 Febrero, Sábado

    Tiempo Temperatura Precipitaciones Viento Presión Humedad
    00:00 -4°C° 0 mm 2 mps 743 mmHg 94%
    01:00 -4°C° 0 mm 2 mps 743 mmHg 94%
    02:00 -5°C° 0 mm 2 mps 743 mmHg 94%
    03:00 -5°C° 0 mm 2 mps 743 mmHg 94%
    04:00 -5°C° 0 mm 2 mps 743 mmHg 94%
    05:00 -5°C° 0 mm 2 mps 743 mmHg 94%
    06:00 -5°C° 0 mm 2 mps 743 mmHg 94%
    07:00 -6°C° 0 mm 3 mps 743 mmHg 94%
    08:00 -6°C° 0 mm 3 mps 743 mmHg 94%
    09:00 -5°C° 0 mm 3 mps 743 mmHg 93%
    10:00 -5°C° 0 mm 3 mps 743 mmHg 92%
    11:00 -4°C° 0 mm 4 mps 743 mmHg 91%
    12:00 -4°C° 0 mm 4 mps 742 mmHg 91%
    13:00 -3°C° 0 mm 4 mps 742 mmHg 91%
    14:00 -3°C° 0 mm 4 mps 741 mmHg 91%
    15:00 -4°C° 0 mm 4 mps 740 mmHg 91%
    16:00 -4°C° 0 mm 4 mps 740 mmHg 92%
    17:00 -4°C° 0 mm 4 mps 739 mmHg 93%
    18:00 -4°C° 0 mm 4 mps 739 mmHg 91%
    19:00 -5°C° 0 mm 5 mps 738 mmHg 90%
    20:00 -5°C° 0 mm 5 mps 738 mmHg 89%
    21:00 -5°C° 0 mm 6 mps 737 mmHg 89%
    22:00 -5°C° 0 mm 6 mps 736 mmHg 88%
    23:00 -6°C° 0 mm 7 mps 735 mmHg 88%
    Mostrar más